#timestamp,LO_Frequency,Hit,StdDev 
1569970815.4,286046998.3,N
1569970835.2,286047000.4,N
1569970855.0,286046999.9,N
1569970856.0,286046999.9,N
1569970875.8,286047000.9,N
1569970895.6,286047000.6,N
1569970915.5,286047000.0,N
1569970935.3,286047002.8,N
1569970955.1,286047001.7,N
1569970975.9,286046999.9,N
1569970995.7,286047001.9,N
1569971015.6,286047003.9,N
1569971035.4,286047002.1,N
1569971055.2,286047002.8,N
1569971075.1,286047001.9,N
1569971076.0,286047001.9,N
1569971095.8,286047000.2,N
1569971115.7,286046998.2,N
1569971135.5,286046998.3,N
1569971155.3,286047001.2,N
1569971175.2,286047000.6,N
1569971195.0,286046999.9,N
1569971195.9,286046999.9,N
1569971215.8,286047000.6,N
1569971235.6,286047001.2,N
1569971255.4,286046998.5,N
1569971275.3,286047001.2,N
1569971295.1,286046998.1,N
1569971315.8,286047000.8,N
1569971335.7,286047001.1,N
1569971355.5,286047000.0,N
1569971375.4,286047000.2,N
1569971395.2,286047001.3,N
1569971415.0,286047004.0,N
1569971415.9,286047004.0,N
1569971435.8,286047006.0,Y
1569971455.6,286047001.9,P
1569971475.5,286047001.9,P
1569971495.3,286047002.0,P
1569971515.1,286047001.7,Y
1569971535.9,286046999.9,P
1569971555.7,286047002.0,N
1569971575.5,286047001.9,N
1569971595.4,286047001.9,N
1569971615.2,286047002.2,N
1569971635.1,286047001.7,N
1569971636.0,286047001.7,N
1569971655.8,286047003.9,Y
1569971675.6,286047002.5,P
1569971695.5,286046999.7,N
1569971715.3,286047002.8,N
1569971735.2,286047002.7,N
1569971755.0,286047002.3,N
1569971755.9,286047002.3,N
1569971775.7,286047002.4,N
1569971795.6,286047002.2,N
1569971815.4,286047001.9,N
1569971835.3,286047002.1,N
1569971855.1,286047002.4,N
1569971856.0,286047002.4,Y
1569971875.8,286046999.1,P
1569971895.7,286046999.6,N
1569971915.5,286046998.3,N
1569971935.4,286046996.6,N
1569971955.2,286046999.4,N
1569971975.0,286046998.9,N
1569971975.9,286046998.9,N
1569971995.8,286046999.5,N
1569972015.6,286046997.0,N
1569972035.4,286046997.1,N
1569972055.3,286046996.8,N
1569972075.1,286046999.2,N
1569972095.9,286046997.0,N
1569972115.7,286046996.7,N
1569972135.5,286046996.8,N
1569972155.4,286046997.5,N
1569972175.2,286046997.8,N
1569972195.1,286046997.6,N
1569972196.0,286046997.6,N
1569972215.8,286046997.8,N
1569972235.6,286046994.9,Y
1569972255.5,286046997.1,P
1569972275.3,286046997.0,P
1569972295.2,286046997.9,P
1569972315.9,286046997.4,Y
1569972335.7,286046999.3,P
1569972355.6,286046997.4,N
1569972375.4,286046996.8,P
1569972395.2,286046997.2,Y
1569972415.1,286046998.8,P
1569972416.0,286046998.8,N
1569972435.8,286046998.7,N
1569972455.7,286046999.4,N
1569972475.5,286046999.4,N
1569972495.3,286046998.9,N
1569972515.2,286046998.3,Y
1569972535.0,286047000.4,P
1569972535.9,286047011.9,P
1569972555.8,286047000.1,N
1569972575.6,286046999.9,N
1569972595.4,286046999.0,N
1569972615.3,286046996.5,N
1569972635.1,286046999.4,N
1569972655.9,286046998.3,N
1569972675.7,286046996.6,N
1569972695.5,286046997.3,N
1569972715.4,286046997.5,N
1569972735.2,286046997.6,N
1569972755.0,286046999.5,N
1569972755.9,286046999.5,N
1569972775.8,286046994.9,N
1569972795.6,286046997.6,N
1569972815.5,286046995.5,N
1569972835.3,286046997.6,N
1569972855.1,286046993.5,N
1569972875.9,286046993.7,N
1569972895.7,286046996.3,N
1569972915.6,286046996.7,N
1569972935.4,286046999.1,N
1569972955.2,286046998.7,N
1569972975.1,286046998.9,N
1569972976.0,286046998.9,N
1569972995.8,286047000.5,N
1569973015.6,286046998.2,N
1569973035.6,286046996.6,N
1569973055.4,286046998.8,N
1569973075.2,286046999.6,N
1569973095.1,286046999.3,N
1569973096.0,286046999.3,N
1569973115.8,286046998.8,N
1569973135.7,286046999.5,N
1569973155.5,286046997.0,N
1569973175.3,286046999.6,N
1569973195.2,286046999.6,N
1569973215.0,286046997.1,N
1569973215.9,286046997.1,N
1569973235.7,286046997.7,N
1569973255.6,286046995.0,N
1569973275.4,286046997.7,N
1569973295.3,286046999.0,N
1569973315.1,286046999.0,N
1569973316.0,286046999.0,N
1569973335.9,286046998.6,N
1569973355.7,286046999.1,N
1569973375.5,286046999.5,N
1569973395.4,286046999.1,N
1569973415.2,286046996.7,N
1569973435.0,286046999.1,N
1569973435.9,286046999.1,N
1569973455.8,286046996.5,Y
1569973475.6,286047001.0,P
1569973495.5,286047000.4,N
1569973515.3,286047002.5,N
1569973535.1,286047004.4,Y
1569973555.9,286047002.2,P
1569973575.7,286047000.3,N
1569973595.6,286046998.5,N
1569973615.4,286046998.3,N
1569973635.2,286047000.9,N
1569973655.1,286047000.7,N
1569973656.0,286047000.7,N
1569973675.8,286046998.5,N
1569973695.6,286047000.9,N
1569973715.5,286046999.9,N
1569973735.3,286047002.4,N
1569973755.2,286047002.8,N
1569973775.9,286047002.5,N
1569973795.7,286046998.6,N
1569973815.6,286046998.8,N
1569973835.4,286046997.2,N
1569973855.2,286046998.9,N
1569973875.1,286046999.5,N
1569973876.0,286046999.5,N
1569973895.8,286046999.4,N
1569973915.7,286047000.7,N
1569973935.5,286046998.2,N
1569973955.3,286046998.5,N
1569973975.2,286046998.3,N
1569973995.0,286047001.1,N
1569973995.9,286047001.1,N
1569974015.8,286046999.0,N
1569974035.6,286046997.0,N
1569974055.4,286046997.1,N
1569974075.3,286046996.6,N
1569974095.1,286046996.6,N
1569974115.9,286046998.9,N
1569974135.7,286047002.7,N
1569974155.5,286046998.6,N
1569974175.4,286046998.7,N
1569974195.2,286047001.7,N
1569974215.0,286047002.0,N
1569974215.9,286047002.0,N
1569974235.8,286047002.1,N
1569974255.6,286047000.4,N
1569974275.5,286047000.4,N
1569974295.3,286047002.0,N
1569974315.1,286047000.0,N
1569974335.9,286046998.7,N
1569974355.7,286046998.4,N
1569974375.6,286046998.4,N
1569974395.4,286046998.2,N
